This is the latest recevied weather packets stored in our database for station/object W8KHW. If no packets are shown the sender has not sent any weather packets the latest 10 day(s).
| Time | Temp. | Humidity | Pressure | Rain* | Wind** | Luminosity | Snow |
|---|---|---|---|---|---|---|---|
| 1777696371 | 2.78° C | 97% | 1017.5 hPa | 0 mm | - | - | - |
| 1777695871 | 2.78° C | 97% | 1017.8 hPa | 0 mm | - | - | - |
| 1777695371 | 2.78° C | 97% | 1017.8 hPa | 0 mm | - | - | - |
| 1777694871 | 3.33° C | 97% | 1017.7 hPa | 0 mm | - | - | - |
| 1777694370 | 2.78° C | 97% | 1017.7 hPa | 0 mm | - | - | - |
| 1777693870 | 2.78° C | 97% | 1017.7 hPa | 0 mm | - | - | - |
| 1777693370 | 3.33° C | 97% | 1017.6 hPa | 0 mm | - | - | - |
| 1777692870 | 3.33° C | 97% | 1017.6 hPa | 0 mm | - | - | - |
| 1777692370 | 3.33° C | 97% | 1017.6 hPa | 0 mm | - | - | - |
| 1777691869 | 3.89° C | 97% | 1017.8 hPa | 0 mm | - | - | - |
| 1777691369 | 3.33° C | 96% | 1017.8 hPa | 0 mm | - | - | - |
| 1777690869 | 3.89° C | 96% | 1017.9 hPa | 0 mm | - | - | - |
| 1777690369 | 3.89° C | 96% | 1017.9 hPa | 0 mm | - | - | - |
| 1777689868 | 3.89° C | 96% | 1017.8 hPa | 0 mm | - | - | - |
| 1777689369 | 3.89° C | 96% | 1017.8 hPa | 0 mm | - | - | - |
| 1777688868 | 4.44° C | 95% | 1017.7 hPa | 0 mm | - | - | - |
| 1777688368 | 4.44° C | 95% | 1017.6 hPa | 0 mm | - | - | - |
| 1777687867 | 4.44° C | 95% | 1017.3 hPa | 0 mm | - | - | - |
| 1777687367 | 4.44° C | 94% | 1017.2 hPa | 0 mm | - | - | - |
| 1777686867 | 5° C | 93% | 1017.3 hPa | 0.25 mm | - | - | - |
* Rain latest hour (hover to see other rain measurements)
** Current wind speed in m/s (hover to see current wind gust speed)